Regional Weather Roundup
Issued by NWS Newport/Morehead, NC

Current Version | Previous Version | Text Only | Print | Product List | Glossary Off
Versions: 1 2 3 4 5 6 7 8 9 10 11 12 13 14 15 16 17 18 19 20 21 22 23 24 25 26 27 28 29 30 31 32 33 34 35 36 37 38 39 40 41 42 43 44 45 46 47 48 49 50
215 ASUS42 KMHX 050513 RWRMHX WEATHER ROUNDUP FOR EASTERN NORTH CAROLINA NATIONAL WEATHER SERVICE NEWPORT/MOREHEAD CITY NC 1200 AM EST MON DEC 05 2016 NOTE: "FAIR" INDICATES FEW OR NO CLOUDS BELOW 12,000 FEET WITH NO SIGNIFICANT WEATHER AND/OR OBSTRUCTIONS TO VISIBILITY NCZ015>017-031-032-045>047-102-103-050600- NORTH COAST CITY SKY/WX TMP DP RH WIND PRES REMARKS EDENTON DRIZZLE 47 43 87 SE5 30.12S ELIZABETH CITY LGT RAIN 46 43 89 E9 30.11F KITTY HAWK DRIZZLE 47 46 94 E3 30.11F MANTEO DRIZZLE 47 45 91 E5 30.12F $$ NCZ045>047-081-094-103-104-050600- CENTRAL COAST CITY SKY/WX TMP DP RH WIND PRES REMARKS FRISCO LGT RAIN 51 48 89 E6 30.09F FOG $$ NCZ095-097-098-100-101-050600- SOUTHERN COAST CITY SKY/WX TMP DP RH WIND PRES REMARKS BEAUFORT LGT RAIN 52 51 97 E7 30.05F FOG CEDAR ISLAND NOT AVBL JACKSONVILLE CLOUDY 48 48 100 NE5 30.05F PINEY ISLAND LGT RAIN N/A N/A N/A E7 30.06F WILMINGTON RAIN 53 53 100 W5 30.03F FOG $$ NCZ011>013-027>030-043-044-078>080-089-090>093-098-050600- COASTAL PLAIN CITY SKY/WX TMP DP RH WIND PRES REMARKS AHOSKIE RAIN 42 41 97 CALM 30.10F CLINTON RAIN 45 45 100 E5 30.07F ELIZABETHTOWN RAIN 45 45 100 CALM 30.05F GOLDSBORO MIX PCPN 45 45 100 E3 30.05F GREENVILLE DRIZZLE 45 45 100 CALM 30.10F HAVELOCK LGT RAIN 49 47 93 E5 30.07F KENANSVILLE LGT RAIN 45 45 100 CALM 30.07F FOG KINSTON LGT RAIN 45 44 97 CALM 30.09F NEW BERN LGT RAIN 47 45 93 E6 30.08F RICHLANDS LGT RAIN 46 45 96 NE5 30.06F ROCKY MOUNT LGT RAIN 43 43 100 CALM 30.08F FOG WASHINGTON DRIZZLE 45 44 95 E6 30.09F WHITEVILLE LGT RAIN 48 47 96 E3 30.04F $$ AMZ130-135-150-152-154-156-158-170-250-252-270-ANZ085-086-088-633-658-670-050600- MARINE OBSERVATIONS STATION/POSITION TIME TEMP WIND PRES WAVE SWELL AIR SEA DIR/SP/G HT/PER HT/PER (UTC) (F) (DEG/KT/KT) (MB) (FT/S) (FT/S) CHESAPEAKE LIGHT NOT AVBL 64 E VA BEACH 0450 51 60 140/ 4/ 4 1020.2 3/ 7 3/ 7 DUCK 0448 49 55 110/ 10/ 12 1019.3 2 E DUCK NOT AVBL OREGON INLET 0442 51 54 70/ 6/ 9 1019.6 13E OREGON INLT NOT AVBL HATTERAS CG 0448 51 58 50/ 6/ 8 1018.5 DIAMOND BUOY 0450 62 74 150/ 14/ 17 1018.8 3/ 8 2/ 8 CAPE LOOKOUT 0400 59 100/ 13/ 15 1018.5 BEAUFORT LAB 0448 51 55 360/ 3/ 5 1016.7 30 SE NEW RVR IN 0408 64 75 170/ 17/ 21 1018.1 30 SE NEW RVR IN NOT AVBL 27 SE WRIGHTSVLE 0408 67 67 160/ 17/ 23 1017.5 5 SE WRIGHTSVLE 0408 58 63 90/ 10/ 14 1017.6 225 S CAPE HAT 0450 67 73 140/ 12/ 14 1020.7 4/ 9 3/ 9 41 SE CHARLESTON 0450 73 75 170/ 21/ 27 1015.6 5/ 5 2/10 $$

USA.gov is the U.S. government's official web portal to all federal, state and local government web resources and services.